GW6463 Weather Reports


time (UTC)temp
F
wind
direction
speed
knots
gust
knots
rain 1hr
in
rain 24hr
in
rain mn
in
humidity
%
barometer
mb
20260509212919 65 321 0.9 2.6 0.00 0.00 0.00 79 1010.7
20260509211805 65 299 0.9 3.5 0.00 0.00 0.00 80 1010.6
20260509210904 65 304 0.9 3.5 0.00 0.00 0.00 81 1010.6
20260509210005 66 321 1.7 3.5 0.00 0.00 0.00 82 1010.7
20260509205408 66 327 0.9 3.5 0.00 0.00 0.00 82 1010.7
20260509204504 66 315 0.9 2.6 0.00 0.00 0.00 83 1010.8
20260509203605 66 355 0.9 3.5 0.00 0.00 0.00 83 1011.1
20260509202705 66 339 0.9 2.6 0.00 0.00 0.00 83 1011.2
20260509201805 66 337 0.9 3.5 0.00 0.00 0.00 83 1011.1
20260509201117 66 340 0.9 3.5 0.00 0.00 0.00 83 1011.2
20260509200009 66 325 0.9 5.2 0.00 0.00 0.00 82 1011.2
20260509195410 66 319 0.9 5.2 0.00 0.00 0.00 82 1011.1
20260509194505 66 332 0.9 2.6 0.00 0.00 0.00 82 1011.3
20260509193818 66 321 0.9 5.2 0.00 0.00 0.00 82 1011.3
20260509192709 67 314 0.9 2.6 0.00 0.00 0.00 81 1011.4
20260509191803 67 322 0.9 5.2 0.00 0.00 0.00 81 1011.3
20260509190903 67 301 0.9 5.2 0.00 0.00 0.00 81 1011.6
20260509190014 67 310 0.9 5.2 0.00 0.00 0.00 81 1011.7
20260509185406 67 324 0.9 5.2 0.00 0.00 0.00 81 1011.5
20260509184505 67 344 0.9 3.5 0.00 0.00 0.00 81 1011.8
20260509183822 67 349 0.9 3.5 0.00 0.00 0.00 81 1011.7
20260509182710 67 7 0.9 3.5 0.00 0.00 0.00 82 1011.9
20260509181818 67 13 0.9 3.5 0.00 0.00 0.00 82 1011.7
20260509180010 67 317 0.9 2.6 0.00 0.00 0.00 81 1011.8
20260509175623 67 316 0.9 3.5 0.00 0.00 0.00 81 1011.8
20260509174505 67 12 0.9 3.5 0.00 0.00 0.00 81 1011.8
20260509173608 67 29 0.9 3.5 0.00 0.00 0.00 81 1011.5
20260509172707 67 25 0.9 3.5 0.00 0.00 0.00 81 1011.7
20260509171808 67 3 0.9 1.7 0.00 0.00 0.00 80 1011.7
20260509170906 67 15 0.9 2.6 0.00 0.00 0.00 80 1011.6
20260509170005 67 6 0.9 2.6 0.00 0.00 0.00 80 1011.7
20260509165404 67 308 0.0 0.9 0.00 0.00 0.00 79 1012.0
20260509164505 67 315 0.0 2.6 0.00 0.00 0.00 79 1011.8
20260509163823 67 322 0.0 1.7 0.00 0.00 0.00 79 1011.6
20260509162706 67 21 0.0 2.6 0.00 0.00 0.00 79 1011.5
20260509162020 67 43 0.0 2.6 0.00 0.00 0.00 79 1011.5
20260509160906 67 39 0.9 2.6 0.00 0.00 0.00 78 1011.2
20260509160005 67 41 0.9 3.5 0.00 0.00 0.00 77 1011.1
20260509155620 67 36 0.9 3.5 0.00 0.00 0.00 77 1011.2
20260509154719 67 36 0.0 2.6 0.00 0.00 0.00 77 1011.2
20260509153605 67 105 0.0 2.6 0.00 0.00 0.00 77 1010.8
20260509152704 68 72 0.0 2.6 0.00 0.00 0.00 77 1011.2
20260509152020 68 58 0.9 2.6 0.00 0.00 0.00 76 1011.1
20260509150906 68 87 0.9 1.7 0.00 0.00 0.00 76 1011.1
20260509150004 69 57 0.9 2.6 0.00 0.00 0.00 76 1011.4
20260509145406 69 81 0.9 6.1 0.00 0.00 0.00 75 1011.1
20260509144512 70 102 0.9 6.1 0.00 0.00 0.00 73 1011.1
20260509143609 71 94 0.9 5.2 0.00 0.00 0.00 69 1011.3
20260509142707 72 86 0.9 2.6 0.00 0.00 0.00 67 1010.8
20260509141805 72 65 0.9 6.1 0.00 0.00 0.00 67 1011.0
20260509140905 73 81 0.9 3.5 0.00 0.00 0.00 65 1011.0
20260509140005 72 87 0.9 3.5 0.00 0.00 0.00 65 1011.0
20260509135619 73 104 0.9 5.2 0.00 0.00 0.00 65 1011.1
20260509134503 72 95 1.7 5.2 0.00 0.00 0.00 65 1011.1
20260509133605 73 75 0.9 2.6 0.00 0.00 0.00 65 1010.8
20260509132917 73 117 0.9 5.2 0.00 0.00 0.00 64 1010.8
20260509131807 73 77 0.9 5.2 0.00 0.00 0.00 64 1010.8
20260509131120 73 98 1.7 5.2 0.00 0.00 0.00 65 1011.1
20260509130009 73 112 1.7 6.1 0.00 0.00 0.00 65 1011.2
20260509125405 73 106 1.7 6.1 0.00 0.00 0.00 66 1011.0
20260509124505 73 101 0.9 6.1 0.00 0.00 0.00 65 1011.2
20260509123604 73 42 0.9 3.5 0.00 0.00 0.00 66 1011.4
20260509122705 74 69 0.9 6.1 0.00 0.00 0.00 62 1011.3
20260509121805 73 99 1.7 7.0 0.00 0.00 0.00 65 1011.4
20260509121118 73 92 0.9 6.1 0.00 0.00 0.00 63 1011.3
20260509120219 73 105 1.7 6.1 0.00 0.00 0.00 63 1011.2
20260509115404 74 84 0.9 6.1 0.00 0.00 0.00 65 1011.1
20260509114718 74 105 1.7 7.0 0.00 0.00 0.00 62 1011.3
20260509113605 74 97 0.9 6.1 0.00 0.00 0.00 60 1011.7
20260509112704 74 90 1.7 7.0 0.00 0.00 0.00 61 1011.7
20260509111803 73 102 0.9 5.2 0.00 0.00 0.00 61 1011.9
20260509110905 74 79 1.7 5.2 0.00 0.00 0.00 58 1012.0
20260509110005 74 126 1.7 5.2 0.00 0.00 0.00 57 1012.1
20260509105618 74 109 0.9 5.2 0.00 0.00 0.00 57 1012.0
20260509104720 74 100 0.9 3.5 0.00 0.00 0.00 56 1012.1
20260509103605 76 82 0.9 3.5 0.00 0.00 0.00 55 1012.5
20260509102946 76 86 0.9 6.1 0.00 0.00 0.00 55 1012.6
20260509101803 77 109 0.9 5.2 0.00 0.00 0.00 54 1012.8
20260509100905 77 80 0.9 5.2 0.00 0.00 0.00 53 1012.9
20260509100005 78 89 0.9 3.5 0.00 0.00 0.00 51 1013.0
20260509095405 78 60 0.9 3.5 0.00 0.00 0.00 49 1013.2
20260509094505 77 95 0.9 6.1 0.00 0.00 0.00 53 1013.2
20260509093605 77 38 0.9 5.2 0.00 0.00 0.00 53 1013.3
20260509092707 76 154 1.7 5.2 0.00 0.00 0.00 55 1013.3
20260509091803 75 98 0.9 2.6 0.00 0.00 0.00 54 1013.5
20260509090905 74 85 0.9 2.6 0.00 0.00 0.00 56 1013.6
20260509090007 75 124 0.0 2.6 0.00 0.00 0.00 57 1013.6
20260509085405 74 117 0.9 2.6 0.00 0.00 0.00 59 1013.7
20260509084504 74 73 0.9 3.5 0.00 0.00 0.00 58 1013.8
20260509083605 74 96 0.9 3.5 0.00 0.00 0.00 62 1014.1
20260509082920 74 80 0.9 2.6 0.00 0.00 0.00 59 1013.9
20260509081805 75 44 0.9 2.6 0.00 0.00 0.00 58 1014.1
20260509080904 74 55 0.9 2.6 0.00 0.00 0.00 60 1014.1
20260509080004 73 117 0.9 2.6 0.00 0.00 0.00 62 1014.5
20260509075405 73 31 0.9 2.6 0.00 0.00 0.00 61 1014.5
20260509074504 74 33 0.9 1.7 0.00 0.00 0.00 57 1014.5
20260509073605 75 79 0.0 1.7 0.00 0.00 0.00 56 1014.5
20260509072705 74 68 0.9 1.7 0.00 0.00 0.00 58 1014.5
20260509071804 73 46 0.0 1.7 0.00 0.00 0.00 59 1014.6
20260509070905 72 37 0.0 2.6 0.00 0.00 0.00 62 1014.7
20260509070219 72 35 0.0 1.7 0.00 0.00 0.00 64 1014.6
20260509065405 72 28 0.0 2.6 0.00 0.00 0.00 65 1014.5
20260509064503 70 352 0.9 1.7 0.00 0.00 0.00 67 1014.4
20260509063605 71 17 0.0 1.7 0.00 0.00 0.00 67 1014.2
20260509062705 69 351 0.0 1.7 0.00 0.00 0.00 70 1014.3
20260509061804 67 342 0.9 2.6 0.00 0.00 0.00 72 1014.4
20260509061119 67 340 0.9 3.5 0.00 0.00 0.00 73 1014.1
20260509060005 65 339 0.9 2.6 0.00 0.00 0.00 75 1014.6
20260509055405 64 345 0.0 1.7 0.00 0.00 0.00 78 1014.3
20260509054505 63 339 0.0 0.9 0.00 0.00 0.00 79 1014.1
20260509053605 64 334 0.0 1.7 0.00 0.00 0.00 78 1014.0
20260509052704 64 317 0.0 0.9 0.00 0.00 0.00 79 1013.8
20260509051809 63 292 0.0 0.9 0.00 0.00 0.00 82 1013.8
20260509050903 61 236 0.0 0.9 0.00 0.00 0.00 84 1013.8
20260509050005 60 245 0.0 0.9 0.00 0.00 0.00 87 1014.0
20260509045403 60 292 0.0 0.9 0.00 0.00 0.00 87 1013.8
20260509044504 60 277 0.0 0.9 0.00 0.00 0.00 87 1013.8
20260509043603 60 0 0.0 0.0 0.00 0.00 0.00 88 1013.6
20260509042703 60 0 0.0 0.0 0.00 0.00 0.00 88 1013.6
20260509042019 60 259 0.0 0.9 0.00 0.00 0.00 89 1013.8
20260509040903 60 313 0.0 0.9 0.00 0.00 0.00 89 1013.7
20260509040220 60 318 0.0 0.9 0.00 0.00 0.00 89 1013.5
20260509035405 60 0 0.0 0.0 0.00 0.00 0.00 89 1013.5
20260509034503 61 0 0.0 0.0 0.00 0.00 0.00 89 1013.4
20260509033605 61 0 0.0 0.0 0.00 0.00 0.00 89 1013.3
20260509032704 60 0 0.0 0.0 0.00 0.00 0.00 90 1013.0
20260509032019 60 317 0.0 0.9 0.00 0.00 0.00 89 1013.4
20260509030905 60 0 0.0 0.0 0.00 0.00 0.00 89 1013.4
20260509030005 60 0 0.0 0.0 0.00 0.00 0.00 89 1013.3
20260509025405 60 0 0.0 0.0 0.00 0.00 0.00 88 1013.2
20260509024505 60 323 0.0 0.9 0.00 0.00 0.00 88 1013.3
20260509023604 60 317 0.0 0.9 0.00 0.00 0.00 88 1013.2
20260509022705 60 0 0.0 0.0 0.00 0.00 0.00 88 1013.3
20260509022019 61 324 0.0 1.7 0.00 0.00 0.00 87 1013.4
20260509020903 61 323 0.0 0.9 0.00 0.00 0.00 86 1013.4
20260509020005 62 230 0.0 0.9 0.00 0.00 0.00 85 1013.5
20260509015405 62 210 0.0 0.9 0.00 0.00 0.00 84 1013.4
20260509014505 62 0 0.0 0.0 0.00 0.00 0.00 84 1013.3
20260509013605 63 0 0.0 0.0 0.00 0.00 0.00 83 1013.4
20260509012705 63 318 0.0 0.9 0.00 0.00 0.00 82 1013.4
20260509011804 63 322 0.0 0.9 0.00 0.00 0.00 81 1013.6
20260509011120 64 0 0.0 0.0 0.00 0.00 0.00 80 1013.5
20260509010004 64 0 0.0 0.0 0.00 0.00 0.00 81 1013.6
20260509005404 64 329 0.0 0.9 0.00 0.00 0.00 81 1013.7
20260509004504 64 311 0.0 0.9 0.00 0.00 0.00 82 1013.7
20260509003605 64 0 0.0 0.0 0.00 0.00 0.00 82 1013.5
20260509002705 64 0 0.0 0.0 0.00 0.00 0.00 81 1013.8
20260509001805 64 0 0.0 0.0 0.00 0.00 0.00 80 1013.7
20260509000905 64 0 0.0 0.0 0.00 0.00 0.00 79 1013.6
20260509000219 64 0 0.0 0.0 0.00 0.00 0.00 79 1013.8
20260508235620 64 0 0.0 0.0 0.00 0.00 0.00 79 1013.6
20260508234505 64 0 0.0 0.0 0.00 0.00 0.00 79 1014.0
20260508233605 64 0 0.0 0.0 0.00 0.00 0.00 79 1013.6
20260508232704 64 0 0.0 0.0 0.00 0.00 0.00 78 1013.7
20260508231805 64 325 0.0 0.9 0.00 0.00 0.00 78 1013.9
20260508231119 64 325 0.0 0.9 0.00 0.00 0.00 78 1013.8
20260508230005 64 0 0.0 0.0 0.00 0.00 0.00 78 1013.9
20260508225618 64 325 0.0 0.9 0.00 0.00 0.00 78 1013.9
20260508224504 64 323 0.0 0.9 0.00 0.00 0.00 77 1013.9
20260508223603 64 324 0.0 0.9 0.00 0.00 0.00 78 1014.2
20260508222704 64 326 0.0 0.9 0.00 0.00 0.00 79 1014.2
20260508221803 64 0 0.0 0.0 0.00 0.00 0.00 78 1014.2
20260508221118 64 0 0.0 0.0 0.00 0.00 0.00 79 1014.3
20260508220005 64 0 0.0 0.0 0.00 0.00 0.00 78 1014.2
20260508215405 64 0 0.0 0.0 0.00 0.00 0.00 78 1014.3
20260508214503 64 0 0.0 0.0 0.00 0.00 0.00 79 1014.5
20260508213607 64 0 0.0 0.0 0.00 0.00 0.00 78 1014.5